Weather History for KBDH - November, 2013

Change the Weather History Date:

Friday, November 8, 2013

  Actual Average (KLJF) Record (KLJF)
Temperature  
Mean Temperature 32 °F -  
Max Temperature 42 °F 45 °F 80 °F (1999)
Min Temperature 23 °F 26 °F 4 °F (1991)
Degree Days  
Heating Degree Days 32    
Moisture  
Dew Point 28 °F    
Average Humidity 77    
Maximum Humidity 93    
Minimum Humidity 61    
Precipitation  
Precipitation 0.00 in - - ()
Sea Level Pressure  
Sea Level Pressure 29.84 in    
Wind  
Wind Speed 9 mph (SE)    
Max Wind Speed 23 mph    
Max Gust Speed 31 mph    
Visibility 10 miles    
Events Rain    
Averages and records for this station are not official NWS values.
T = Trace of Precipitation, MM = Missing Value Source: NWS Daily Summary

Daily Weather History Graph

Daily Weather History Graph

Search for Another Location

Airport or City:

Trip Planner

Search our weather history database for the weather conditions in past years. The results will help you decide how hot, cold, wet, or windy it might be!

Date:

Astronomy

Nov. 08, 2013 Rise Set
Actual Time 7:09 AM CST 4:58 PM CST
Civil Twilight 6:37 AM CST 5:29 PM CST
Nautical Twilight 6:02 AM CST 6:05 PM CST
Astronomical Twilight 5:28 AM CST 6:39 PM CST
Moon 12:05 PM CST (11/8) 10:21 PM CST (11/8)
Length of Visible Light 10h 52m
Length of Day
9h 49m
Waxing Crescent, 33% of the Moon is Illuminated
Nov 8
Waxing Crescent
Nov 9
First Quarter
Nov 17
Full
Nov 25
Last Quarter
Dec 2
New

Hourly Weather History & Observations

Time (CST) Temp. Windchill Dew Point Humidity Pressure Visibility Wind Dir Wind Speed Gust Speed Precip Events Conditions
12:15 AM 24.8 °F 20.5 °F 21.2 °F 86% 30.17 in 7.0 mi SSE 3.5 mph - N/A   Clear
12:35 AM 26.6 °F - 24.8 °F 93% 30.17 in 7.0 mi Calm Calm - N/A   Clear
12:55 AM 24.8 °F 20.5 °F 21.2 °F 86% 30.16 in 7.0 mi SE 3.5 mph - N/A   Clear
1:15 AM 24.8 °F 19.1 °F 21.2 °F 86% 30.16 in 7.0 mi SE 4.6 mph - N/A   Clear
1:35 AM 24.8 °F 19.1 °F 21.2 °F 86% 30.16 in 5.0 mi SE 4.6 mph - N/A   Clear
1:55 AM 23.0 °F 17.0 °F 21.2 °F 93% 30.15 in 7.0 mi SE 4.6 mph - N/A   Clear
2:15 AM 24.8 °F 19.1 °F 21.2 °F 86% 30.15 in 7.0 mi SE 4.6 mph - N/A   Clear
2:35 AM 24.8 °F 19.1 °F 21.2 °F 86% 30.14 in 7.0 mi SE 4.6 mph - N/A   Clear
2:55 AM 24.8 °F 17.9 °F 21.2 °F 86% 30.14 in 7.0 mi SE 5.8 mph - N/A   Clear
3:15 AM 24.8 °F 19.1 °F 21.2 °F 86% 30.13 in 7.0 mi SE 4.6 mph - N/A   Clear
3:35 AM 24.8 °F 19.1 °F 21.2 °F 86% 30.13 in 7.0 mi SE 4.6 mph - N/A   Clear
3:55 AM 24.8 °F 19.1 °F 21.2 °F 86% 30.12 in 10.0 mi SE 4.6 mph - N/A   Clear
4:15 AM 24.8 °F 17.9 °F 21.2 °F 86% 30.11 in 10.0 mi SE 5.8 mph - N/A   Clear
4:35 AM 24.8 °F 19.1 °F 21.2 °F 86% 30.10 in 10.0 mi SE 4.6 mph - N/A   Clear
4:55 AM 24.8 °F 17.9 °F 21.2 °F 86% 30.09 in 10.0 mi SE 5.8 mph - N/A   Clear
5:15 AM 24.8 °F 16.9 °F 21.2 °F 86% 30.09 in 10.0 mi SE 6.9 mph - N/A   Clear
5:35 AM 24.8 °F 16.1 °F 21.2 °F 86% 30.08 in 10.0 mi SE 8.1 mph - N/A   Clear
5:55 AM 26.6 °F 18.2 °F 23.0 °F 86% 30.06 in 10.0 mi SE 8.1 mph - N/A   Scattered Clouds
6:15 AM 26.6 °F 17.5 °F 23.0 °F 86% 30.05 in 10.0 mi SE 9.2 mph - N/A   Scattered Clouds
6:35 AM 28.4 °F 19.7 °F 24.8 °F 86% 30.04 in 10.0 mi SE 9.2 mph - N/A   Scattered Clouds
6:55 AM 28.4 °F 21.2 °F 24.8 °F 86% 30.04 in 10.0 mi SE 6.9 mph - N/A   Clear
7:15 AM 28.4 °F 20.4 °F 24.8 °F 86% 30.03 in 10.0 mi SE 8.1 mph - N/A   Clear
7:35 AM 30.2 °F 21.3 °F 24.8 °F 80% 30.03 in 10.0 mi SE 10.4 mph - N/A   Clear
7:55 AM 30.2 °F 20.2 °F 24.8 °F 80% 30.01 in 10.0 mi SE 12.7 mph - N/A   Clear
8:15 AM 30.2 °F 20.2 °F 26.6 °F 86% 29.99 in 10.0 mi ESE 12.7 mph - N/A   Clear
8:35 AM 33.8 °F 23.9 °F 26.6 °F 75% 29.96 in 10.0 mi ESE 15.0 mph 21.9 mph N/A   Clear
8:55 AM 33.8 °F 24.3 °F 26.6 °F 75% 29.95 in 10.0 mi SE 13.8 mph - N/A   Clear
9:15 AM 33.8 °F 24.3 °F 26.6 °F 75% 29.94 in 10.0 mi ESE 13.8 mph - N/A   Clear
9:35 AM 33.8 °F 23.5 °F 26.6 °F 75% 29.92 in 10.0 mi SE 16.1 mph 20.7 mph N/A   Clear
9:55 AM 35.6 °F 25.5 °F 26.6 °F 70% 29.90 in 10.0 mi SE 17.3 mph 21.9 mph N/A   Clear
10:15 AM 35.6 °F 25.9 °F 26.6 °F 70% 29.89 in 10.0 mi SE 16.1 mph - N/A   Clear
10:35 AM 35.6 °F 24.8 °F 26.6 °F 70% 29.88 in 10.0 mi SE 19.6 mph - N/A   Clear
10:55 AM 37.4 °F 27.5 °F 26.6 °F 65% 29.85 in 10.0 mi SE 18.4 mph 25.3 mph N/A   Clear
11:15 AM 37.4 °F 26.4 °F 26.6 °F 65% 29.83 in 10.0 mi SE 23.0 mph 31.1 mph N/A   Clear
11:35 AM 37.4 °F 26.9 °F 26.6 °F 65% 29.81 in 10.0 mi SE 20.7 mph 28.8 mph N/A   Clear
11:55 AM 37.4 °F 26.4 °F 26.6 °F 65% 29.79 in 10.0 mi SE 23.0 mph 27.6 mph N/A   Clear
12:15 PM 37.4 °F 26.4 °F 26.6 °F 65% 29.77 in 10.0 mi SE 23.0 mph 27.6 mph N/A   Clear
12:35 PM 37.4 °F 26.9 °F 26.6 °F 65% 29.74 in 10.0 mi SE 20.7 mph 27.6 mph N/A   Clear
12:55 PM 37.4 °F 26.6 °F 26.6 °F 65% 29.71 in 10.0 mi SE 21.9 mph 27.6 mph N/A   Clear
1:15 PM 39.2 °F 28.7 °F 26.6 °F 61% 29.71 in 10.0 mi SE 23.0 mph 29.9 mph N/A   Clear
1:35 PM 39.2 °F 29.8 °F 26.6 °F 61% 29.70 in 10.0 mi SE 18.4 mph 27.6 mph N/A   Clear
1:55 PM 39.2 °F 30.2 °F 26.6 °F 61% 29.69 in 10.0 mi SE 17.3 mph 25.3 mph N/A   Clear
2:15 PM 39.2 °F 30.5 °F 26.6 °F 61% 29.69 in 10.0 mi SE 16.1 mph - N/A   Clear
2:35 PM 39.2 °F 29.8 °F 26.6 °F 61% 29.67 in 10.0 mi SE 18.4 mph 24.2 mph N/A   Clear
2:55 PM 39.2 °F 30.5 °F 28.4 °F 65% 29.66 in 10.0 mi ESE 16.1 mph - N/A   Clear
3:15 PM 39.2 °F 30.5 °F 28.4 °F 65% 29.65 in 10.0 mi SE 16.1 mph 20.7 mph N/A   Clear
3:35 PM 39.2 °F 30.5 °F 28.4 °F 65% 29.65 in 10.0 mi SE 16.1 mph - N/A   Clear
3:55 PM 41.0 °F 32.2 °F 28.4 °F 61% 29.64 in 10.0 mi SE 18.4 mph 21.9 mph N/A   Clear
4:15 PM 39.2 °F 30.8 °F 30.2 °F 70% 29.63 in 10.0 mi SE 15.0 mph 19.6 mph N/A   Clear
4:35 PM 39.2 °F 31.2 °F 30.2 °F 70% 29.62 in 10.0 mi SE 13.8 mph - N/A   Clear
4:55 PM 39.2 °F 31.6 °F 30.2 °F 70% 29.62 in 10.0 mi SSE 12.7 mph 20.7 mph N/A   Clear
5:15 PM 39.2 °F 32.5 °F 30.2 °F 70% 29.61 in 10.0 mi SE 10.4 mph - N/A   Clear
5:35 PM 39.2 °F 34.2 °F 30.2 °F 70% 29.61 in 10.0 mi SSE 6.9 mph - N/A   Clear
5:55 PM 37.4 °F - 30.2 °F 75% 29.61 in 10.0 mi Calm Calm - N/A   Mostly Cloudy
6:15 PM 39.2 °F - 32.0 °F 75% 29.60 in 10.0 mi Calm Calm - N/A   Scattered Clouds
6:35 PM 39.2 °F 37.0 °F 32.0 °F 75% 29.60 in 10.0 mi South 3.5 mph - N/A   Scattered Clouds
6:55 PM 39.2 °F 37.0 °F 33.8 °F 81% 29.60 in 10.0 mi SSE 3.5 mph - N/A Rain Light Rain
7:15 PM 39.2 °F 37.0 °F 33.8 °F 81% 29.61 in 10.0 mi South 3.5 mph - N/A   Light Drizzle
7:35 PM 39.2 °F 37.0 °F 33.8 °F 81% 29.60 in 10.0 mi SSW 3.5 mph - N/A Rain Light Rain
7:55 PM 39.2 °F 37.0 °F 33.8 °F 81% 29.60 in 10.0 mi South 3.5 mph - N/A   Overcast
8:15 PM 41.0 °F 35.8 °F 35.6 °F 81% 29.60 in 10.0 mi SW 8.1 mph - N/A   Overcast
8:35 PM 42.8 °F 36.2 °F 35.6 °F 76% 29.60 in 10.0 mi WSW 12.7 mph - N/A   Overcast
8:55 PM 42.8 °F 36.2 °F 35.6 °F 76% 29.60 in 10.0 mi West 12.7 mph - N/A   Scattered Clouds
9:15 PM 42.8 °F 37.0 °F 37.4 °F 81% 29.61 in 10.0 mi West 10.4 mph - N/A   Mostly Cloudy
9:35 PM 42.8 °F 35.8 °F 37.4 °F 81% 29.61 in 10.0 mi West 13.8 mph - N/A Rain Light Rain
9:55 PM 42.8 °F 35.1 °F 37.4 °F 81% 29.62 in 10.0 mi West 16.1 mph 20.7 mph N/A Rain Light Rain
10:15 PM 42.8 °F 35.8 °F 39.2 °F 87% 29.63 in 10.0 mi West 13.8 mph - N/A Rain Rain
10:35 PM 42.8 °F 37.5 °F 39.2 °F 87% 29.62 in 10.0 mi West 9.2 mph - N/A   Overcast
10:55 PM 42.8 °F 35.8 °F 39.2 °F 87% 29.63 in 10.0 mi West 13.8 mph - N/A   Overcast
11:15 PM 41.0 °F 33.1 °F 37.4 °F 87% 29.64 in 10.0 mi West 15.0 mph - N/A   Overcast
11:35 PM 41.0 °F 33.1 °F 37.4 °F 87% 29.65 in 10.0 mi West 15.0 mph 19.6 mph N/A   Mostly Cloudy
11:55 PM 39.2 °F 30.8 °F 35.6 °F 87% 29.66 in 10.0 mi West 15.0 mph - N/A   Scattered Clouds